Weather in Sharipovo

Russia / Kurgan Oblast     54°50′50″N   63°27′49″E
temp.,
°C
wind,
m/s
gust,
m/s
humid.,
%
clouds,
%
prec.,
mm/h
press.,
hPa
HPBL,
m
17 may, tue
tue1723:00+11wsw512745 0.3 999311
02:00+8sw38865 0.0 1000218
05:00+8wsw611895 0.0 1000343
08:00+12wsw7107015 0.0 1000712
11:00+16wsw795355 0.1 10011723
14:00+16w584968 0.0 10021477
17:00+16sw4750100 0.1 1003668
20:00+15sw335490 0.0 100348
18 may, wed
wed1823:00+12ssw486596 0.0 1004141
02:00+10sw497540 0.0 1004158
05:00+9ssw4881100 0.0 1005186
08:00+12sw6870100 0.0 1006565
11:00+16wsw5654100 0.0 10051440
14:00+18sw57325 0.1 10042439
17:00+19ssw673395 0.1 10022423
20:00+11wsw6117595 0.1 1003493
19 may, thu
thu1923:00+10sw3881100 0.1 1002432
02:00+10sw4981100 0.1 1001343
05:00+8w511867 0.2 1002375
08:00+11w69705 0.0 1003679
11:00+14wsw7105157 0.1 10041835
14:00+13w81056100 0.1 10061542
17:00+12wnw6105811 0.4 10081231
20:00+11w36535 0.0 1009149
20 may, fri
fri2023:00+9s336330 0.0 100941
02:00+9sw41170100 0.0 1008317
05:00+8wsw3687100 0.0 1008153
08:00+10wsw3370100 0.0 1009491
11:00+12sw3457100 0.0 10081241
14:00+10sw2277100 1.4 1007487
17:00+10ne1277100 3.2 1004479
20:00+8ne2488100 2.7 1003322
21 may, sat
sat2123:00+8n2686100 3.3 1002361
02:00+6nw2386100 0.0 100243
05:00+5nw2385100 0.0 100262
08:00+8wnw216594 0.0 1002304
11:00+12sw1147100 0.0 10011275
14:00+14sse2138100 0.0 9991768
17:00+14sse2238100 0.0 9981982
20:00+10w4672100 0.4 999291